[[{"header":{"parameterUnit":"m.s-1","parameterCategory":1,"la1":30.2991,"la2":30.254,"lo1":-89.0895,"lo2":-89.0444,"dy":0.0017,"dx":0.0017,"nx":28,"ny":28,"refTime":"2024-05-31T03:00:00:Z","depth":0,"parameterNumber":2,"parameterNumberName":"U-component_of_WINDS"},"data":[0,0,0,0,0,0,0,0,0,0,0,0,0,0,0,0,0,0,0,0,0,0,0,0,0,0,0,0,0,0,0,0,0,0,0,0,0,0,0,0,0,0,0,0,0,0,0,0,0,0,0,0,0,0,0,0,0,0,-2.5378,-2.5374,0,-2.4957,-2.4952,-2.4947,-2.4739,-2.4739,-2.4739,-2.4739,-2.4293,-2.4281,-2.4269,0,0,0,0,0,0,0,0,0,0,0,0,0,-2.5986,-2.5976,-2.5379,-2.5373,-2.5368,-2.4957,-2.4952,-2.4946,-2.4739,-2.4739,-2.4739,-2.4739,-2.4297,-2.4283,-2.4268,0,0,0,0,0,0,0,0,0,0,0,0,0,-2.5659,-2.5973,-2.538,-2.5216,-2.5197,-2.4959,-2.4951,-2.4944,-2.4739,-2.4739,-2.4739,-2.4739,-2.4301,-2.4284,-2.4266,-2.4154,0,0,-2.4212,-2.4204,0,0,0,0,0,0,0,0,-2.5678,-2.5637,-2.5245,-2.5227,-2.5205,-2.4901,-2.5002,-2.4679,-2.4739,-2.4913,-2.4739,-2.4739,-2.4494,-2.446,-2.4381,-2.4133,-2.4114,-2.421,-2.4199,-2.4192,-2.4186,0,0,0,0,0,0,0,-2.5701,-2.5654,-2.5211,-2.524,-2.5215,-2.5157,-2.5111,-2.494,-2.4707,-2.4897,-2.4881,-2.4835,-2.4483,-2.4398,-2.4369,-2.4108,-2.4211,-2.4195,-2.4184,-2.4177,-2.3739,-2.3738,0,0,0,0,0,0,-2.5753,-2.5674,-2.5224,-2.5198,-2.5447,-2.5146,-2.5094,-2.4998,-2.4709,-2.4665,-2.4836,-2.4827,-2.4429,-2.439,-2.4352,-2.4197,-2.4192,-2.4175,-2.4165,-2.374,-2.3739,-2.3738,0,0,0,0,0,0,-2.5766,-2.5714,-2.5241,-2.5432,-2.5367,-2.5136,-2.5029,-2.499,-2.4905,-2.4662,-2.4618,-2.4793,-2.4427,-2.4377,-2.4204,-2.4179,-2.4167,-2.4151,-2.3741,-2.3739,-2.3738,-2.389,0,0,0,0,0,0,-2.5785,-2.5721,-2.5681,-2.5433,-2.5358,-2.5107,-2.5028,-2.4982,-2.4877,-2.4861,-2.4611,-2.4569,-2.4424,-2.4232,-2.4187,-2.4154,-2.4137,-2.3742,-2.374,-2.3739,-2.3886,-2.3894,-2.3901,0,0,0,0,0,-2.5807,-2.5739,-2.568,-2.5627,-2.5304,-2.5106,-2.5063,-2.4901,-2.4876,-2.483,-2.4672,-2.4577,-2.419,-2.4216,-2.4163,-2.4125,-2.3743,-2.3741,-2.3739,-2.3883,-2.3893,-2.3901,0,0,0,0,0,0,-2.5986,-2.5703,-2.5635,-2.5485,-2.5322,-2.5072,-2.501,-2.4917,-2.4754,-2.4746,-2.4548,-2.4493,-2.4336,-2.4213,-2.4248,-2.3997,-2.3956,-2.3944,-2.4084,-2.4091,-2.4099,-2.413,-2.4122,0,0,0,0,0,-2.6009,-2.5877,-2.5635,-2.5526,-2.5447,-2.5243,-2.5151,-2.5041,-2.4861,-2.479,-2.462,-2.4445,-2.4282,-2.418,-2.4018,-2.3867,-2.3806,-2.3814,-2.3822,-2.3829,-2.3819,-2.3724,-2.3723,-2.3731,-2.3731,-2.3731,0,0,-2.6053,-2.5882,-2.581,-2.5557,-2.5418,-2.5279,-2.5186,-2.5045,-2.4939,-2.4766,-2.4593,-2.4462,-2.4253,-2.409,-2.4009,-2.3982,-2.3803,-2.3826,-2.3834,-2.382,-2.3722,-2.3721,-2.3721,-2.373,-2.373,-2.373,0,0,-2.6062,-2.5923,-2.5814,-2.5676,-2.5466,-2.533,-2.5304,-2.5066,-2.4974,-2.4798,-2.4664,-2.4531,-2.4258,-2.4113,-2.4004,-2.3953,-2.3856,-2.3905,-2.3942,-2.3852,-2.3851,-2.385,-2.3827,-2.3822,-2.3897,-2.3897,-2.3897,0,-2.6142,-2.5935,-2.5768,-2.5634,-2.5523,-2.5364,-2.5248,-2.512,-2.4867,-2.4792,-2.4766,-2.4416,-2.4265,-2.4062,-2.405,-2.3968,-2.3927,-2.3932,-2.3866,-2.3862,-2.3858,-2.3834,-2.3827,-2.3904,-2.3903,-2.3903,-2.3902,0,-2.604,-2.5898,-2.5834,-2.5597,-2.5479,-2.5355,-2.5163,-2.5062,-2.4961,-2.4826,-2.4644,-2.4456,-2.4251,-2.4194,-2.4093,-2.3975,-2.3964,-2.3905,-2.3859,-2.3868,-2.3841,-2.3831,-2.3914,-2.3912,-2.391,-2.3908,0,0,-2.6153,-2.5824,-2.5803,-2.569,-2.5446,-2.5329,-2.5193,-2.4996,-2.4911,-2.474,-2.4618,-2.4389,-2.4331,-2.4207,-2.4087,-2.4008,-2.3973,-2.3956,-2.3948,-2.3963,-2.3825,-2.387,-2.3863,-2.3909,-2.3906,-2.3904,-2.3841,0,-2.6125,-2.5883,-2.5726,-2.5542,-2.5404,-2.5248,-2.5129,-2.4962,-2.4831,-2.4689,-2.4541,-2.4381,-2.4319,-2.4242,-2.4158,-2.3996,-2.3942,-2.3999,-2.3786,-2.3781,-2.3842,-2.3849,-2.3897,-2.3847,-2.3831,-2.3829,-2.3827,0,-2.6062,-2.5898,-2.5703,-2.5468,-2.5403,-2.5301,-2.5104,-2.4973,-2.4778,-2.4686,-2.4547,-2.4425,-2.4269,-2.4238,-2.4016,-2.4058,-2.3961,-2.3868,-2.3861,-2.3833,-2.3804,-2.3818,-2.3828,-2.382,-2.381,-2.3812,-2.3813,0,-2.6159,-2.5889,-2.5735,-2.5644,-2.5368,-2.5298,-2.5178,-2.4984,-2.4873,-2.4699,-2.4624,-2.4434,-2.4329,-2.4181,-2.4008,-2.4002,-2.3801,-2.3757,-2.3716,-2.372,-2.368,-2.3684,-2.3671,-2.3623,-2.3623,-2.3623,-2.3624,0,-2.6144,-2.6029,-2.5774,-2.568,-2.5543,-2.5361,-2.5229,-2.5096,-2.4923,-2.4794,-2.4646,-2.4528,-2.4308,-2.416,-2.4023,-2.3857,-2.3811,-2.3729,-2.3693,-2.3741,-2.3751,-2.3673,-2.3671,-2.3621,-2.3622,-2.3622,-2.3622,0,-2.6229,-2.6055,-2.5876,-2.5629,-2.5563,-2.5474,-2.5258,-2.5156,-2.5016,-2.4855,-2.4806,-2.4584,-2.4402,-2.4215,-2.3968,-2.3876,-2.3712,-2.3665,-2.378,-2.376,-2.3728,-2.3732,-2.3662,-2.3641,-2.3612,-2.3613,-2.3613,0,-2.623,-2.6138,-2.5881,-2.5786,-2.5671,-2.552,-2.5407,-2.5221,-2.5108,-2.4876,-2.4801,-2.4608,-2.4445,-2.416,-2.3973,-2.3781,-2.3726,-2.3714,-2.3696,-2.3745,-2.3721,-2.3728,-2.3715,-2.3721,-2.3722,-2.3723,-2.3724,0,-2.6249,-2.6166,-2.6012,-2.5825,-2.5694,-2.5537,-2.5374,-2.5303,-2.5084,-2.4963,-2.4778,-2.4651,-2.4399,-2.4207,-2.3993,-2.3862,-2.3754,-2.3732,-2.3711,-2.3757,-2.3826,-2.3784,-2.3796,-2.3734,-2.3733,-2.3732,-2.3732,-2.3731,-2.6288,-2.6197,-2.6001,-2.5831,-2.569,-2.554,-2.5431,-2.5277,-2.512,-2.4903,-2.4801,-2.4613,-2.4412,-2.4114,-2.3985,-2.3831,-2.3801,-2.3773,-2.3765,-2.376,-2.377,-2.3854,-2.3791,-2.3791,-2.379,-2.379,-2.379,0,-2.6296,-2.6161,-2.6008,-2.5785,-2.5649,-2.5564,-2.5377,-2.5268,-2.5106,-2.493,-2.4772,-2.4555,-2.4367,-2.4165,-2.3963,-2.3878,-2.3823,-2.3831,-2.3834,-2.3805,-2.381,-2.3846,-2.3879,-2.3879,-2.3879,-2.3879,-2.3879,-2.3879,-2.6284,-2.6124,-2.6017,-2.5782,-2.5646,-2.5464,-2.5364,-2.5222,-2.508,-2.4846,-2.469,-2.4561,-2.4371,-2.4154,-2.3976,-2.392,-2.3851,-2.3873,-2.3803,-2.3812,-2.3805,-2.3799,-2.3832,-2.3861,-2.3861,-2.381,-2.3809,-2.3809]},{"header":{"parameterUnit":"m.s-1","parameterCategory":1,"la1":30.2991,"la2":30.254,"lo1":-89.0895,"lo2":-89.0444,"dy":0.0017,"dx":0.0017,"nx":28,"ny":28,"refTime":"2024-05-31T03:00:00:Z","depth":0,"parameterNumber":3,"parameterNumberName":"V-component_of_WINDS"},"data":[0,0,0,0,0,0,0,0,0,0,0,0,0,0,0,0,0,0,0,0,0,0,0,0,0,0,0,0,0,0,0,0,0,0,0,0,0,0,0,0,0,0,0,0,0,0,0,0,0,0,0,0,0,0,0,0,0,0,4.7119,4.7122,0,4.7457,4.7461,4.7464,4.7552,4.755,4.7548,4.7546,4.7886,4.7896,4.7907,0,0,0,0,0,0,0,0,0,0,0,0,0,4.6543,4.6553,4.7118,4.7122,4.7127,4.7456,4.7461,4.7465,4.7553,4.755,4.7548,4.7545,4.7882,4.7895,4.7908,0,0,0,0,0,0,0,0,0,0,0,0,0,4.6828,4.6556,4.7117,4.721,4.7222,4.7455,4.7461,4.7467,4.7553,4.755,4.7547,4.7544,4.7878,4.7894,4.791,4.8073,0,0,4.796,4.7967,0,0,0,0,0,0,0,0,4.6811,4.6849,4.7192,4.7204,4.7218,4.7459,4.7382,4.767,4.7554,4.7427,4.7546,4.7543,4.7746,4.7773,4.7843,4.8089,4.8103,4.7962,4.7971,4.7979,4.7983,0,0,0,0,0,0,0,4.6792,4.6835,4.7252,4.7197,4.7213,4.7233,4.727,4.7437,4.7599,4.7438,4.7445,4.7484,4.7752,4.7827,4.7851,4.8108,4.7961,4.7976,4.7986,4.7992,4.8508,4.8512,0,0,0,0,0,0,4.6757,4.6818,4.7241,4.7262,4.7003,4.7246,4.7288,4.7385,4.7598,4.7628,4.7487,4.7487,4.78,4.7832,4.7864,4.8071,4.7978,4.7994,4.8003,4.8505,4.8509,4.8513,0,0,0,0,0,0,4.6744,4.6794,4.7228,4.7042,4.7099,4.7259,4.7368,4.7393,4.7468,4.7635,4.7663,4.7534,4.7799,4.7841,4.8022,4.8084,4.8001,4.8016,4.85,4.8506,4.8511,4.8486,0,0,0,0,0,0,4.6727,4.6789,4.6853,4.7043,4.7109,4.7381,4.7372,4.7402,4.7497,4.7501,4.7687,4.7714,4.78,4.7997,4.8038,4.8105,4.8029,4.8495,4.8503,4.8509,4.8482,4.849,4.8497,0,0,0,0,0,4.6706,4.683,4.6856,4.6907,4.7193,4.7384,4.7422,4.752,4.7502,4.7568,4.7675,4.7708,4.807,4.8014,4.8062,4.8135,4.8492,4.85,4.8509,4.8478,4.8488,4.8497,0,0,0,0,0,0,4.664,4.6856,4.6888,4.7077,4.7212,4.7399,4.7485,4.7527,4.7668,4.7665,4.7779,4.782,4.7994,4.8082,4.8016,4.8305,4.8281,4.83,4.8241,4.8253,4.826,4.8235,4.8043,0,0,0,0,0,4.6648,4.6787,4.6968,4.7117,4.7184,4.7323,4.741,4.7474,4.7618,4.7674,4.7795,4.7931,4.8076,4.8169,4.8311,4.8495,4.8537,4.8568,4.8576,4.8581,4.8596,4.8702,4.8719,4.8542,4.8542,4.8542,0,0,4.6664,4.68,4.688,4.7108,4.722,4.7361,4.737,4.7518,4.7623,4.7696,4.7876,4.7969,4.8128,4.8312,4.8399,4.8391,4.8655,4.8592,4.8596,4.8608,4.8713,4.873,4.8744,4.8548,4.8547,4.8546,0,0,4.6767,4.6884,4.7023,4.7136,4.7308,4.74,4.7432,4.7615,4.7681,4.7863,4.7922,4.8048,4.8294,4.8407,4.8496,4.8645,4.8681,4.8688,4.8728,4.883,4.8844,4.8857,4.8912,4.893,4.8702,4.8702,4.8702,0,4.6766,4.6983,4.7088,4.7235,4.7334,4.741,4.7551,4.7655,4.7862,4.7928,4.7917,4.8231,4.8343,4.8555,4.8592,4.8661,4.8703,4.8667,4.8834,4.8848,4.8861,4.8915,4.8935,4.8701,4.8701,4.8702,4.8702,0,4.6973,4.7123,4.7214,4.7417,4.7526,4.7669,4.7795,4.7892,4.7947,4.804,4.8226,4.8364,4.8537,4.8592,4.8645,4.8813,4.8803,4.8811,4.8789,4.8876,4.8929,4.895,4.8701,4.8701,4.8701,4.8701,0,0,4.7042,4.7305,4.7337,4.7431,4.7627,4.7744,4.789,4.8063,4.8145,4.8285,4.8412,4.862,4.863,4.8731,4.8799,4.8888,4.9,4.8886,4.8892,4.8904,4.9195,4.9189,4.9211,4.9026,4.903,4.9033,4.9183,0,4.7171,4.7439,4.754,4.7758,4.7899,4.7974,4.8102,4.8235,4.8326,4.8457,4.8556,4.8704,4.8705,4.8767,4.8859,4.8967,4.906,4.8957,4.9144,4.9149,4.9103,4.9238,4.9232,4.9366,4.9204,4.9207,4.921,0,4.7357,4.7504,4.7738,4.792,4.7983,4.8096,4.8264,4.8388,4.8541,4.8601,4.8716,4.8779,4.8935,4.8903,4.912,4.9047,4.913,4.9194,4.9202,4.9224,4.9185,4.9265,4.9411,4.9431,4.9243,4.924,4.9238,0,4.7386,4.7642,4.7817,4.7895,4.8111,4.8189,4.8282,4.8433,4.8531,4.8677,4.8742,4.8902,4.899,4.9112,4.9217,4.9183,4.9425,4.9401,4.9479,4.9476,4.9526,4.9522,4.9688,4.9577,4.9576,4.9576,4.9576,0,4.752,4.766,4.7834,4.794,4.81,4.8214,4.8368,4.8466,4.86,4.8727,4.88,4.8917,4.9047,4.918,4.9262,4.9431,4.9469,4.9522,4.9542,4.9516,4.951,4.9572,4.9566,4.9582,4.958,4.9579,4.9578,0,4.7579,4.7701,4.7896,4.8086,4.8138,4.8247,4.8409,4.8516,4.8611,4.877,4.8814,4.8963,4.9125,4.9241,4.9448,4.9503,4.9684,4.9703,4.9633,4.9644,4.9716,4.9708,4.993,4.9965,4.9828,4.9829,4.983,0,4.7657,4.7768,4.7971,4.8063,4.8157,4.8303,4.8406,4.8522,4.8625,4.881,4.8894,4.9061,4.9201,4.9455,4.9581,4.974,4.9765,4.9832,4.9789,4.976,4.9768,4.9761,4.9773,4.9837,4.9838,4.9839,4.984,0,4.7783,4.7839,4.7984,4.8153,4.8273,4.841,4.8547,4.8618,4.8758,4.887,4.9038,4.9147,4.9361,4.9526,4.9699,4.9793,4.984,4.9852,4.9879,4.9854,4.981,4.9837,4.9652,4.9847,4.9846,4.9845,4.9845,4.9845,4.7855,4.7959,4.8119,4.828,4.8397,4.8524,4.8635,4.8746,4.8889,4.9075,4.9134,4.9308,4.946,4.9698,4.9794,4.9932,4.9929,4.9967,4.9977,4.9985,4.9985,4.9788,4.9963,4.9963,4.9963,4.9963,4.9963,0,4.7987,4.8095,4.8241,4.8434,4.8561,4.8597,4.8752,4.8855,4.9009,4.9148,4.9286,4.948,4.9642,4.9781,4.9949,5.0032,5.0058,5.0072,5.0067,5.0089,4.9977,4.9938,5.0048,5.0048,5.0048,5.0048,5.0048,5.0048,4.807,4.8247,4.8322,4.8559,4.8665,4.884,4.8925,4.9044,4.9156,4.9371,4.9507,4.9598,4.9738,4.9917,5.0067,5.0104,5.0162,5.0172,5.0214,5.0106,5.0096,5.0087,5.0051,5.0183,5.0183,5.0315,5.0316,5.0317]}]]